Location: Bieg
(49.3499°N, 10.3835°E)
Time: 13:19:57
(UTC+00:00)

Nimbus 7 Rocket - Pass Details

Date: 23 May 2024
Orbit: 922 x 963 km, 99.4° (Epoch: 24 June)

Event Time Altitude Azimuth Distance (km) Brightness Sun altitude
Rises 00:24:59 0° 14° (NNE) 3,621 9.2 -18.3°
Reaches altitude 10° 00:27:25 10° 13° (NNE) 2,678 8.1 -18.2°
Maximum altitude 00:33:24 77° 289° (WNW) 981 4.5 -17.9°
Enters shadow 00:36:44 28° 208° (SSW) 1,702 5.2 -17.7°
